Printer-friendly version

IAU Minor Planet Center

Minor Planet Center

MPEC 2008-U102: 2008 UU95

The following Minor Planet Electronic Circular may be linked-to from your own Web pages, but must not otherwise be redistributed electronically.


Read MPEC 2008-U101 Read MPEC 2008-U103


M.P.E.C. 2008-U102                               Issued 2008 Oct. 31, 00:14 UT

     The Minor Planet Electronic Circulars contain information on unusual
         minor planets and routine data on comets.  They are published
   on behalf of Commission 20 of the International Astronomical Union by the
          Minor Planet Center, Smithsonian Astrophysical Observatory,
                          Cambridge, MA 02138, U.S.A.

             Prepared using the Tamkin Foundation Computer Network

                              MPC@CFA.HARVARD.EDU
          URL http://www.cfa.harvard.edu/iau/mpc.html  ISSN 1523-6714

                                   2008 UU95

Observations:
     K08U95U* C2008 10 30.37925 01 59 33.86 +20 39 37.9          20.7 V EU102G96
     K08U95U  C2008 10 30.38699 01 59 34.18 +20 39 27.1          20.5 V EU102G96
     K08U95U  C2008 10 30.39472 01 59 34.58 +20 39 16.9          20.4 V EU102G96
     K08U95U  C2008 10 30.40253 01 59 34.94 +20 39 06.5          20.3 V EU102G96
     K08U95U  C2008 10 30.43367 01 59 36.45 +20 38 24.2          20.9 V EU102G96
     K08U95U  C2008 10 30.43464 01 59 36.40 +20 38 21.3          19.8 R EU102H01
     K08U95U  C2008 10 30.43798 01 59 36.58 +20 38 16.7          19.7 R EU102H01
     K08U95U  C2008 10 30.43984 01 59 36.67 +20 38 14.2          19.9 R EU102H01
     K08U95U  C2008 10 30.44058 01 59 36.78 +20 38 15.1          20.9 V EU102G96
     K08U95U  C2008 10 30.44241 01 59 36.81 +20 38 10.7          19.8 R EU102H01
     K08U95U  C2008 10 30.44742 01 59 37.10 +20 38 05.5          21.2 V EU102G96
     K08U95U  C2008 10 30.45428 01 59 37.32 +20 37 55.8          19.3 V EU102G96
     K08U95U  C2008 10 30.95195 02 00 10.05 +20 27 26.7                 EU102J95
     K08U95U  C2008 10 30.95734 02 00 10.31 +20 27 20.6                 EU102J95
     K08U95U  C2008 10 30.96270 02 00 10.55 +20 27 13.6          20.4 R EU102J95

Observer details:
G96 Mt. Lemmon Survey.  Observer E. Beshore.  Measurers E. C. Beshore,
    A. Boattini, G. J. Garradd, A. R. Gibbs, A. D. Grauer, R. E. Hill,
    R. A. Kowalski, S. M. Larson, R. H. McNaught.  1.5-m reflector + CCD.
H01 Magdalena Ridge Observatory, Socorro.  Observer W. H. Ryan.  2.4-m f/8.9
    reflector + CCD.
J95 Great Shefford.  Observer P. Birtwhistle.  0.40-m f/6.0 Schmidt-Cassegrain
    + CCD.

Orbital elements:
2008 UU95                                                Earth MOID = 0.0078 AU
Epoch 2008 Nov. 30.0 TT = JDT 2454800.5                 MPC
M  33.89111              (2000.0)            P               Q
n   0.38016013     Peri.   64.10457     +0.84304458     +0.53713906
a   1.8872308      Node   263.39502     -0.50284604     +0.76899760
e   0.5217220      Incl.    1.58764     -0.19084470     +0.34658956
P   2.59           H   23.4           G   0.15           U   9
Residuals in seconds of arc
081030 G96  0.1-  0.3+    081030 H01  0.1+  0.3+    081030 G96  0.1+  0.3-
081030 G96  0.4-  0.2-    081030 H01  0.2+  0.2+    081030 G96  1.7-  0.6-
081030 G96  0.2+  0.0     081030 H01  0.2+  0.2+    081030 J95  0.2-  0.1-
081030 G96  0.2+  0.1+    081030 G96  0.4+  0.1+    081030 J95  0.1+  0.3+
081030 G96  0.6+  0.2-    081030 H01  0.3+  0.2+    081030 J95  0.1+  0.2-

Ephemeris:
2008 UU95                a,e,i = 1.89, 0.52, 2                   q = 0.9026
Date    TT    R. A. (2000) Decl.     Delta      r     Elong.  Phase     V
2008 10 31    02 00.21   +20 26.9    0.173    1.165   171.8     7.0    20.4
2008 11 01    02 01.14   +20 07.3    0.181    1.172   171.8     6.9    20.5
2008 11 02    02 02.01   +19 49.0    0.189    1.179   171.7     7.0    20.7
2008 11 03    02 02.83   +19 31.9    0.196    1.186   171.4     7.2    20.8
2008 11 04    02 03.60   +19 16.0    0.204    1.194   171.0     7.5    20.9
2008 11 05    02 04.34   +19 01.1    0.212    1.201   170.5     7.8    21.0
2008 11 06    02 05.04   +18 47.2    0.220    1.208   170.0     8.2    21.1
2008 11 07    02 05.72   +18 34.1    0.228    1.216   169.3     8.7    21.2
2008 11 08    02 06.38   +18 22.0    0.236    1.223   168.6     9.2    21.3
2008 11 09    02 07.02   +18 10.5    0.245    1.231   167.9     9.7    21.4
2008 11 10    02 07.65   +17 59.8    0.253    1.238   167.1    10.3    21.5
2008 11 11    02 08.27   +17 49.8    0.262    1.246   166.3    10.8    21.6
2008 11 12    02 08.87   +17 40.4    0.270    1.253   165.5    11.4    21.8
2008 11 13    02 09.48   +17 31.6    0.279    1.261   164.7    11.9    21.9
2008 11 14    02 10.08   +17 23.4    0.288    1.268   163.9    12.5    22.0
2008 11 15    02 10.67   +17 15.7    0.297    1.276   163.0    13.1    22.1
2008 11 16    02 11.27   +17 08.5    0.306    1.284   162.2    13.7    22.2
2008 11 17    02 11.87   +17 01.8    0.315    1.291   161.3    14.2    22.3
2008 11 18    02 12.47   +16 55.6    0.324    1.299   160.4    14.8    22.3
2008 11 19    02 13.07   +16 49.8    0.334    1.306   159.6    15.3    22.4
2008 11 20    02 13.69   +16 44.4    0.343    1.314   158.7    15.9    22.5

Timothy B. Spahr             (C) Copyright 2008 MPC           M.P.E.C. 2008-U102

Read MPEC 2008-U101 Read MPEC 2008-U103


Our Web policy. Index to the CBAT/MPC/ICQ pages.


Valid HTML 4.01!